CAPE
0 0 0 0 0 0 0 0 0 0 0 0 0 0 51 129 148 331 649 1017 1462 2006 2181 2308 2132 1495 1430 2812 4950 4783 4226 4871 4253 4141 3341 3299 3258 3129 2770 2507 1521 32 0 0
0 0 0 0 0 0 0 0 0 0 0 0 0 122 147 70 324 698 1088 1261 1473 2266 1426 3220 2856 2563 2401 2162 3941 5723 5713 6402 4809 3923 4708 4267 3906 3405 3174 979 366 122 2 0
0 0 0 0 0 0 0 0 0 0 0 0 0 44 64 59 558 729 793 1465 1716 1899 2230 3236 3628 2876 2697 2951 3499 3827 5115 6115 5906 5513 5757 5609 4876 4224 2906 522 70 25 159 93
0 0 0 0 0 0 0 0 0 0 0 0 1 88 96 114 619 785 684 735 1082 1800 1920 2198 2702 3746 3436 2751 2990 3429 3839 5018 5729 5950 5404 4974 4770 3841 1948 889 897 226 257 1350
0 0 0 0 0 0 0 0 0 0 0 0 47 358 88 0 344 590 607 580 789 1251 1601 1838 1831 2997 3728 3726 3718 3639 3830 3953 4079 4880 4443 4362 4327 2897 1031 2169 3077 2271 2347 2873
0 0 0 0 0 0 0 0 0 9 2 48 241 360 15 21 244 415 493 487 648 819 1220 1402 2001 2993 3244 3025 3566 4546 4514 4409 4125 4150 4202 3860 4050 4100 4175 3542 3194 2433 2585 3096
0 0 0 0 0 0 0 0 50 108 62 20 81 42 260 146 166 307 439 508 531 605 753 920 1212 1751 2353 2344 2837 2796 2417 3227 2933 2342 2133 2135 2103 1949 2633 2376 2157 1770 1465 1497
5 0 0 0 0 0 0 0 62 18 44 33 121 295 156 86 135 154 234 403 345 264 525 668 722 821 1152 1700 2106 2076 2292 1779 2438 2223 2122 2876 2413 1954 1683 1668 1545 1590 686 127
4 4 0 0 0 0 0 36 0 9 182 194 157 28 15 181 184 74 84 222 122 0 0 48 298 501 448 775 1377 1625 1521 1585 1521 1717 1989 2244 2185 1978 1664 1749 1134 484 3 5
0 7 0 0 0 0 26 0 97 97 129 59 45 17 93 428 95 4 15 0 0 0 0 0 0 38 147 293 684 850 1162 1557 1599 1734 1769 1537 1718 1699 1383 1002 628 29 5 3
0 89 50 56 71 38 0 0 0 34 14 6 34 233 387 109 17 3 0 0 0 0 0 1 0 0 0 0 0 538 705 1058 1350 1512 1985 2051 1627 1765 996 742 365 94 12 5
3 0 0 1 0 0 0 0 0 0 0 9 0 0 139 55 32 16 17 0 4 0 1 2 9 4 0 0 0 0 13 472 1146 1399 1753 2004 1775 1665 1056 1083 466 252 157 66
0 52 1 1 3 23 6 0 0 0 4 1 3 64 111 81 14 17 0 1 0 4 22 15 1 0 12 2 0 0 3 46 255 990 1650 1831 1793 1832 1392 1177 515 404 251 76
0 0 0 0 0 0 0 0 0 0 1 5 5 10 30 100 58 34 25 39 2 22 41 27 19 68 49 17 0 26 151 181 210 168 558 1360 1635 1686 1638 1181 773 332 140 93
0 0 0 0 0 0 0 0 0 0 0 0 0 26 68 64 49 27 40 85 52 60 25 58 45 51 41 27 8 0 44 176 275 99 220 391 1035 1690 1538 1496 1120 512 387 128
0 0 0 0 0 0 0 0 0 0 0 0 15 47 12 61 58 31 8 19 9 28 27 30 51 45 74 83 62 25 97 157 194 206 0 153 330 1352 1433 1134 1121 917 542 75
0 0 0 0 0 0 0 0 0 0 0 0 5 17 0 0 8 21 64 32 12 0 0 5 8 10 41 66 119 90 172 106 35 211 70 135 392 942 1143 1027 716 756 171 0
0 0 0 0 0 3 5 0 0 0 0 0 1 3 7 12 34 14 22 0 0 0 0 0 0 0 0 0 23 134 141 55 246 330 442 391 907 676 447 149 64 60 11 5
0 0 0 0 0 0 17 0 0 0 0 0 0 0 0 0 0 7 0 0 0 0 0 0 8 3 32 87 221 191 161 282 126 653 432 801 322 83 71 19 8 2 0 16
0 0 0 0 3 19 0 0 0 0 1 0 0 0 0 0 0 0 0 0 0 4 11 39 32 62 152 256 238 330 468 675 588 746 849 252 113 44 8 11 18 38 8 6
0 0 1 4 12 30 0 0 0 0 1 0 0 0 0 0 0 3 15 47 39 32 50 65 57 52 167 308 442 399 624 847 711 414 105 9 14 6 42 28 34 6 14 0
0 0 0 2 20 31 0 0 0 0 0 0 0 0 0 1 3 15 35 50 56 66 59 67 93 98 309 522 475 390 686 557 125 8 4 3 3 5 14 8 8 0 5 40
0 0 11 0 1 4 0 0 0 0 0 0 0 0 1 5 11 18 41 35 36 67 77 86 82 154 296 586 74 61 501 162 8 6 7 2 2 1 1 0 0 0 0 18
3 0 0 0 1 0 0 0 0 0 0 0 1 3 4 19 22 36 43 77 86 101 151 157 121 70 203 184 406 315 399 49 4 5 4 2 0 0 0 0 0 0 0 0
0 0 0 0 0 0 0 0 0 0 0 1 0 2 13 10 19 57 80 55 63 79 48 105 107 170 69 244 301 328 224 5 3 3 4 2 1 0 0 0 0 0 0 0
0 0 0 0 0 0 0 0 0 0 0 0 6 3 12 36 46 38 35 35 26 30 44 54 63 129 16 236 234 484 105 2 8 3 2 0 1 3 0 0 0 0 0 0
CIN
0 0 0 0 0 0 0 0 0 0 0 0 0 0 -3 -11 -6 -13 -6 -6 -1 -6 -25 -58 -119 -205 -169 -73 -18 -60 -73 -51 -32 -21 -90 -96 -50 -19 -17 -118 -177 -678 0 0
0 0 0 0 0 0 0 0 0 0 0 0 0 -106 -171 -320 -77 -2 -1 -2 -10 -6 -196 -10 -76 -171 -200 -143 -23 -8 -15 -16 -41 -57 -23 -17 -26 -18 -72 -351 -314 -308 -74 -214
0 0 0 0 0 0 0 0 0 0 0 0 -2 -249 -390 -195 -1 -3 -2 -2 -1 -2 -2 -1 -3 -103 -140 -143 -70 -10 -2 -7 -11 -11 -8 -10 -25 -42 -90 -514 -235 -532 -442 -559
0 0 0 0 0 0 0 0 0 0 0 0 -4 -132 -226 -134 -1 -2 -2 -2 -2 -2 -1 -2 -6 -3 -58 -125 -133 -127 -103 -31 -4 -4 -4 -15 -17 -44 -194 -409 -399 -513 -368 -132
0 0 0 0 0 0 0 0 0 0 0 0 -2 -23 -225 0 -3 -1 -4 -27 -2 -2 -19 -31 -26 0 -1 -10 -59 -85 -77 -64 -46 -21 -12 -13 -14 -89 -386 -177 -18 -103 -163 -69
0 0 0 0 0 0 0 0 0 -67 -18 -8 -9 -44 -86 -290 -5 -8 -36 -51 -41 -10 -31 -97 -48 -1 -30 -70 -5 -1 -5 -2 -7 -4 -2 -5 -4 -10 -10 -38 -41 -78 -82 -10
0 0 0 0 0 0 0 0 -11 -14 -40 -14 -94 -7 -21 -2 -17 -17 -56 -65 -42 -46 -47 -125 -126 -80 -85 -108 -67 -80 -146 -42 -57 -111 -158 -138 -134 -161 -64 -88 -91 -93 -58 -82
-1 -5 0 0 0 0 0 0 -40 -72 -57 -30 -29 -12 -7 -31 -65 -47 -55 -54 -55 -61 -55 -96 -154 -147 -162 -134 -102 -87 -74 -158 -48 -92 -101 -27 -57 -91 -84 -66 -43 -46 -217 -432
-30 -4 0 0 0 0 0 -47 0 -56 -21 -13 -91 -167 -57 -11 -69 -59 -38 -24 -85 -17 0 -143 -127 -169 -177 -169 -115 -94 -110 -91 -105 -78 -55 -43 -47 -39 -50 -37 -102 -244 -294 0
-21 -38 0 0 0 0 -67 0 -18 -7 -3 -29 -19 -41 -111 -3 -49 -73 -58 0 0 0 0 0 0 -100 -179 -125 -110 -106 -61 -6 -19 -27 -26 -35 -24 -13 -55 -93 -156 -423 0 0
0 -93 -35 -28 -39 -42 -3 0 0 -52 -30 -7 -3 -6 -10 -53 -68 -50 0 0 0 0 0 -1 -1 0 0 0 0 -60 -51 -21 -5 -1 -1 -4 -14 -9 -53 -85 -161 -263 -171 0
-185 0 -9 -4 0 0 -17 0 0 0 0 -4 0 -1 -74 -62 -55 -85 -93 0 -113 0 -2 -3 -2 -3 0 0 0 0 -127 -40 -1 -1 -1 -3 -3 -13 -28 -6 -63 -110 -131 -146
0 -68 -29 -27 -4 -76 -84 -1 0 0 0 0 0 -2 -1 0 -17 -10 -2 -1 0 -2 -8 -4 -4 0 -1 -1 0 0 -4 -19 -21 -2 -3 -7 -10 -4 -8 -2 -14 -13 -28 -89
0 0 0 0 0 0 0 0 0 0 0 -1 0 -2 -6 -26 -1 -4 -9 -1 -1 -2 -2 -2 -3 -1 -2 -5 0 -13 -7 -20 -30 -30 -5 -7 -9 -12 -10 -7 -7 -10 -16 -21
0 0 0 0 0 0 0 0 0 0 0 0 0 -1 -15 -13 -38 -15 -15 -17 -25 -4 -1 -2 -3 -2 -4 -6 -18 0 -12 -6 -10 -10 -8 -11 -8 -7 -9 -2 -4 -10 -9 -21
0 0 0 0 0 0 0 0 0 0 0 0 -1 -5 -13 -16 -5 -3 -8 -26 -34 -23 -51 -7 -1 -1 -2 -3 -2 -5 -4 -5 -8 -16 -1 -9 -12 -7 -8 -13 -5 -3 -9 -14
0 0 0 0 0 0 -1 0 0 0 0 0 -1 -3 0 0 -10 -13 -6 -12 -7 0 0 -59 -36 -14 -7 -6 -8 -12 -9 -14 -14 -8 -22 -13 -14 -7 -6 -2 -12 -6 -26 0
0 0 0 0 0 0 -6 0 0 0 0 0 -1 -2 -2 -3 -3 -3 -15 -9 0 0 0 -11 0 0 0 0 -8 -8 -10 -17 -6 -6 -11 -22 -12 -12 -40 -54 -17 -19 -41 -2
0 0 0 0 0 0 -17 0 0 0 0 0 0 0 0 0 0 -6 0 0 0 0 0 0 -1 -6 -13 -8 -5 -8 -31 -49 -116 -4 -18 0 -35 -33 -25 -15 0 0 0 -2
0 0 0 0 0 -1 -3 0 0 0 -1 0 0 0 0 0 0 0 0 0 0 -1 -1 -2 -1 -1 -4 -8 -37 -41 -7 -4 -3 -2 0 -30 -13 -1 0 -1 0 0 -2 -3
0 0 0 -1 -1 -10 0 0 0 0 -1 0 0 0 0 0 0 -1 0 -1 0 -1 -1 -2 -2 -3 -7 -52 -16 -42 -15 -6 -2 -8 -20 0 -13 -4 -10 -2 -3 -3 -5 -3
0 0 0 -1 -1 -4 0 0 0 0 0 0 0 0 0 -1 -1 0 0 0 -1 0 -1 0 -2 -2 -4 -6 -29 -33 -1 -11 -29 -13 0 0 0 0 -4 0 0 -8 -27 -24
-1 0 -18 0 -1 -3 0 0 0 0 0 0 0 0 -1 0 -1 -1 0 0 0 -1 0 -1 -1 -1 -2 -41 -134 -155 -8 -31 -80 0 0 0 0 0 0 0 0 0 -6 -15
-2 -2 0 0 0 -1 0 0 0 0 0 0 -1 -1 -1 0 0 0 0 0 -1 -5 -2 -3 -1 -8 -10 -24 -16 -42 -2 -50 0 0 0 0 0 0 0 0 0 0 0 0
0 0 0 0 0 0 0 0 0 0 0 0 0 -1 -1 -1 -1 0 0 -3 -2 0 -6 -11 -11 -26 -68 -6 -30 -35 -4 -27 0 0 0 0 0 0 0 0 0 0 0 0
0 0 0 -1 0 0 0 0 0 0 0 0 0 -1 -1 -1 -1 -1 -3 -7 -14 -13 -1 -3 -6 -12 -85 -4 -13 -14 -17 0 0 0 0 0 0 0 -1 0 0 0 0 0
Wind_Speed
16 10 4 13 9 9 10 7 8 5 3 3 11 6 11 13 18 16 14 13 9 15 18 17 16 13 11 8 4 8 10 8 5 5 9 8 7 6 6 5 2 1 7 8
9 8 9 5 3 7 7 9 11 9 2 5 12 21 26 25 11 16 17 16 16 19 10 14 13 12 11 6 4 4 3 7 7 6 2 3 4 6 6 6 6 8 11 8
10 13 3 6 9 7 10 4 8 11 12 11 3 19 29 29 14 17 16 17 17 17 18 14 12 12 12 14 13 6 2 4 5 5 3 2 2 3 4 4 3 8 24 14
6 9 3 7 5 8 7 8 8 12 12 13 12 6 12 15 15 16 15 16 17 17 17 16 15 12 12 12 12 13 14 11 3 5 4 7 3 5 2 7 10 17 22 16
6 2 1 9 12 7 13 5 11 10 14 13 12 11 9 24 11 14 15 15 16 18 18 19 18 16 18 13 12 9 9 11 11 11 5 4 5 2 5 7 7 11 11 9
10 4 4 9 8 9 8 11 16 15 11 5 4 9 8 9 9 12 14 14 14 17 20 19 19 18 19 17 15 11 10 9 6 6 5 6 7 7 5 9 7 9 6 2
7 9 5 5 13 9 6 9 10 6 4 4 16 8 9 9 11 13 12 14 14 16 17 18 18 20 19 19 19 17 20 16 17 13 10 11 13 13 10 7 7 10 7 8
6 10 5 4 7 9 9 7 7 12 10 9 15 12 12 14 12 13 14 15 15 16 16 17 19 17 17 17 16 15 15 17 17 16 14 10 8 5 8 9 7 6 7 6
9 6 4 3 7 8 10 9 11 10 14 10 6 6 5 12 11 11 12 14 14 15 14 16 16 14 16 15 15 14 14 13 13 14 12 8 8 8 6 8 8 6 6 4
10 7 2 3 5 9 2 7 8 4 7 13 14 10 5 9 9 11 13 13 12 13 13 13 14 14 13 12 12 13 12 10 8 9 10 8 6 5 6 5 5 4 3 2
10 8 8 10 3 10 11 11 9 7 8 10 9 7 8 7 9 9 11 10 10 12 13 12 13 13 13 13 15 11 11 12 12 11 10 11 6 6 4 3 2 2 1 2
9 5 8 15 9 10 9 5 9 4 11 11 10 10 11 9 10 7 9 11 11 10 10 12 14 14 12 11 12 11 11 13 10 11 10 9 10 4 2 2 3 3 3 4
9 5 6 7 11 4 9 9 7 9 4 10 9 7 6 10 13 13 10 10 10 9 10 10 11 12 11 11 12 11 11 11 11 11 8 8 8 5 6 2 2 4 4 6
3 4 6 8 15 11 8 10 11 9 7 10 12 16 15 13 9 6 7 3 9 10 8 9 9 9 10 11 12 13 11 11 12 14 12 11 7 7 4 7 4 4 5 5
4 4 7 10 13 14 14 12 12 11 8 8 13 12 15 13 13 14 14 8 7 8 15 13 12 12 12 11 11 11 12 11 11 14 15 13 11 5 7 5 6 5 5 5
3 5 9 11 15 12 10 14 12 9 8 11 9 9 11 12 10 14 16 14 15 13 13 17 17 15 14 12 11 11 10 11 13 12 15 17 13 5 5 6 5 5 5 6
4 5 7 9 11 14 11 11 10 8 11 12 11 11 14 14 12 14 13 18 16 17 16 15 16 15 14 13 12 12 10 10 13 12 14 15 12 10 7 9 7 6 4 5
5 6 5 8 10 9 9 9 8 10 11 13 11 13 15 15 15 15 13 11 15 17 16 15 14 14 15 14 13 11 8 12 13 11 15 13 12 14 12 12 14 16 10 8
1 6 6 6 8 11 14 12 9 9 10 15 13 15 17 18 18 6 15 16 14 13 13 13 12 14 14 11 10 10 15 11 13 19 11 12 12 10 8 10 11 11 9 5
2 3 4 7 7 5 10 11 11 10 4 13 14 15 17 17 13 13 20 19 16 14 13 12 13 13 10 11 14 19 14 11 13 15 16 10 9 6 7 8 10 8 6 8
3 5 9 8 7 5 10 13 10 7 9 14 15 15 15 13 12 13 14 13 13 13 14 13 12 12 10 5 7 7 10 13 14 16 13 9 6 3 7 8 8 7 6 5
4 6 8 6 8 1 13 6 7 6 11 12 13 14 15 15 16 17 16 15 15 15 16 16 12 10 9 9 14 17 16 10 11 12 11 13 13 12 9 10 8 8 6 5
1 3 5 5 7 7 6 7 8 8 10 12 15 15 15 17 17 18 16 16 16 16 13 12 13 14 9 9 7 7 7 10 7 9 11 11 10 10 10 10 9 8 9 6
3 7 2 6 5 12 10 9 8 10 12 13 13 16 18 18 18 18 16 14 15 17 16 16 14 12 12 12 9 8 9 7 8 10 8 6 7 6 7 4 8 9 10 9
8 1 4 9 8 8 7 13 12 12 12 15 17 17 18 19 19 19 15 15 15 14 15 15 12 14 16 8 7 5 8 7 9 8 6 4 4 4 8 9 8 9 11 10
6 6 4 5 7 6 10 12 13 14 15 16 17 19 19 19 21 20 16 17 14 15 16 14 15 13 14 14 4 9 8 8 7 7 2 1 2 3 5 8 9 12 11 13
Wind_Direction
203 260 300 20 360 334 315 322 283 265 21 326 289 314 54 37 65 51 47 30 18 55 46 34 22 357 344 336 166 168 173 170 195 174 187 195 229 229 227 87 130 141 341 258
238 225 52 354 328 302 282 274 14 314 128 249 280 31 23 77 312 62 53 63 34 38 76 69 42 12 1 352 313 105 171 149 185 204 253 190 200 221 91 49 353 328 311 297
289 67 82 284 278 275 241 11 354 305 299 257 212 44 356 308 77 69 49 71 66 43 33 47 56 56 25 21 13 3 9 215 181 209 207 239 144 179 147 140 79 335 272 272
308 81 312 282 256 321 22 16 309 303 291 284 192 124 195 283 83 74 54 39 61 63 39 31 41 46 71 50 24 18 13 360 213 209 226 257 214 245 306 163 178 228 248 232
77 234 288 292 26 342 309 356 298 285 278 294 146 110 315 329 84 73 63 44 40 56 51 25 28 35 30 58 59 48 28 13 7 2 272 298 277 278 266 273 254 196 220 224
299 65 277 345 304 260 301 283 273 263 253 237 130 140 215 226 66 76 71 54 38 47 54 36 13 33 40 18 25 45 54 33 18 6 356 318 310 302 344 356 4 9 360 45
194 192 149 245 293 210 236 317 316 250 333 86 243 306 122 121 81 79 65 55 49 46 51 43 34 23 29 20 12 22 12 31 41 38 44 37 26 10 9 12 2 352 339 22
249 154 153 29 356 338 312 317 12 332 335 336 218 19 103 82 65 72 56 53 38 46 45 52 32 35 37 30 22 21 21 11 14 17 19 21 21 10 2 5 358 338 16 12
346 55 101 87 326 328 357 15 336 309 290 267 98 27 263 96 58 40 58 51 33 48 44 41 52 39 30 38 34 29 19 12 7 4 355 8 8 14 3 24 13 18 16 16
359 306 128 18 277 220 347 311 341 328 330 336 330 120 195 46 29 23 38 35 32 32 45 41 46 40 31 34 40 24 29 25 11 347 350 348 345 13 50 29 30 43 18 11
27 323 315 278 28 5 346 340 358 349 313 317 338 27 93 71 64 11 17 21 43 26 24 39 40 40 33 20 20 32 23 18 5 2 355 346 351 45 60 113 83 83 51 102
46 315 306 309 336 38 323 11 37 357 331 337 316 307 71 66 72 46 19 21 25 6 32 26 28 24 22 19 12 19 12 3 3 351 344 350 336 6 99 19 134 165 155 174
350 24 307 287 140 72 358 6 334 327 294 282 297 309 152 84 3 24 11 14 352 4 41 26 16 11 8 13 3 3 8 356 346 338 328 330 328 325 306 287 216 231 219 198
319 303 294 297 313 327 312 311 311 311 291 309 307 326 344 48 53 28 341 354 349 338 17 24 6 4 358 11 2 349 355 352 347 334 331 324 314 296 288 297 280 239 228 255
27 288 312 309 317 305 293 303 318 309 333 335 331 347 17 8 353 2 45 38 331 322 358 4 5 0 357 0 348 345 343 338 338 329 325 322 320 319 303 300 300 288 278 268
45 303 308 301 283 291 326 296 296 30 3 318 308 42 9 46 348 355 351 24 29 18 5 350 351 348 339 337 330 334 328 336 332 321 316 311 312 307 284 289 282 280 281 356
312 344 315 296 326 320 283 29 37 357 355 343 332 12 8 1 357 346 26 21 12 358 351 339 336 330 331 334 336 328 330 329 314 308 309 307 320 341 334 303 289 262 113 60
305 311 285 287 311 304 104 52 39 20 3 351 0 4 2 359 354 1 37 19 347 343 338 337 337 331 326 322 318 308 323 314 305 314 351 339 342 354 13 34 41 20 26 73
58 300 319 295 318 318 114 49 23 7 30 37 14 354 346 341 329 287 31 358 343 341 337 331 329 324 307 312 322 334 359 357 15 331 329 352 5 7 25 64 72 87 103 101
183 249 263 315 288 304 45 22 354 316 294 18 352 343 339 340 326 343 347 337 341 336 325 328 326 321 344 340 18 5 342 0 347 343 349 19 6 27 53 64 63 61 54 68
221 262 267 285 288 99 31 344 324 286 9 340 347 348 346 338 330 322 320 326 324 317 320 330 332 334 346 23 356 31 353 5 10 16 14 14 6 30 64 55 51 49 40 43
331 322 298 306 310 39 12 342 24 346 345 344 348 339 334 325 324 327 331 327 321 332 329 331 335 339 339 349 31 20 352 17 22 31 31 27 19 27 21 34 31 32 357 310
253 26 353 351 339 21 37 44 26 13 347 343 333 332 328 329 330 328 327 325 323 322 322 332 332 340 344 40 49 68 293 33 33 48 43 40 31 31 28 22 7 21 359 6
193 112 246 334 115 1 10 45 24 3 341 330 326 336 334 327 326 322 314 315 332 355 350 346 338 347 351 352 39 36 9 47 55 60 57 59 56 33 28 7 43 34 19 17
337 216 311 289 36 338 58 17 356 337 329 341 334 324 331 324 312 313 335 341 332 339 343 338 348 350 350 343 24 25 72 72 71 68 60 56 68 63 66 51 37 66 50 41
4 21 340 17 19 350 342 345 333 345 336 326 329 330 309 329 339 341 351 344 344 338 331 329 327 352 338 326 15 58 65 81 84 78 64 238 157 189 124 97 84 52 72 61